Flag for Norway

Past Weather in Kristiansand, Norway — Yesterday and Last 2 Weeks

Now
46 °F

Cool.


Feels Like: 44 °F
Forecast: 64 / 50 °F
Wind: 6 mph from Northeast

Location: Kristiansand / Kjevik

Current Time: Jul 10, 2020 at 1:34:11 am

Latest Report: Jul 10, 2020 at 12:50 am


Visibility: N/A

Pressure: 29.80 "Hg

Humidity: 87%

Dew Point: 43 °F

Location of KristiansandLocation

Past Weather in Kristiansand — Graph

°F

Kristiansand Temperature Yesterday

Maximum temperature yesterday: 64 °F (at 5:20 pm)
Minimum temperature yesterday: 50 °F (at 3:50 am)
Average temperature yesterday: 58 °F

High & Low Weather Summary for the Past Weeks

 TemperatureHumidityPressure
High79 °F (Jun 26, 2:50 pm)100% (Jun 25, 2:50 am)30.30 "Hg (Jun 25, 2:50 am)
Low48 °F (Jul 2, 4:20 am)35% (Jul 8, 4:20 pm)29.15 "Hg (Jul 5, 10:50 am)
Average60 °F71%29.69 "Hg
* Reported Jun 25 12:20 am — Jul 10 12:20 am, Kristiansand. Weather by CustomWeather, © 2020

Note: Actual official high and low records may vary slightly from our data, if they occured in-between our weather recording intervals... More about our weather records

Kristiansand Weather History for the Previous 24 Hours

Scroll right to see more
 ConditionsComfort  
Time TempWeatherWind HumidityBarometerVisibility
12:20 am
Fri, Jul 10
48 °FCool.8 mph87%29.80 "HgN/A
11:50 pm
Thu, Jul 9
50 °FCool.6 mph82%29.80 "HgN/A
11:20 pm50 °FCool.6 mph82%29.80 "HgN/A
10:50 pm52 °FCool.7 mph77%29.80 "HgN/A
10:20 pm55 °FCool.6 mph67%29.80 "HgN/A
9:50 pm59 °FRefreshingly cool.6 mph59%29.80 "HgN/A
9:20 pm61 °FRefreshingly cool.7 mph48%29.80 "HgN/A
8:50 pm61 °FSunny.8 mph48%29.80 "Hg10 mi
8:20 pm63 °FSunny.9 mph45%29.80 "Hg10 mi
7:50 pm63 °FSunny.12 mph49%29.80 "Hg10 mi
7:20 pm63 °FClear.12 mph49%29.83 "HgN/A
6:50 pm63 °FPassing clouds.12 mph49%29.80 "HgN/A
6:20 pm63 °FPassing clouds.12 mph52%29.83 "HgN/A
5:50 pm63 °FPassing clouds.10 mph52%29.83 "HgN/A
5:20 pm64 °FPassing clouds.10 mph49%29.83 "HgN/A
4:50 pm63 °FPassing clouds.12 mph52%29.83 "HgN/A
4:20 pm63 °FPassing clouds.10 mph52%29.83 "HgN/A
3:50 pm63 °FPassing clouds.10 mph56%29.83 "HgN/A
3:20 pm63 °FPassing clouds.9 mph59%29.83 "HgN/A
2:50 pm63 °FPassing clouds.10 mph52%29.86 "HgN/A
2:20 pm63 °FPassing clouds.10 mph52%29.86 "HgN/A
1:50 pm61 °FPassing clouds.12 mph59%29.86 "HgN/A
1:20 pm61 °FPassing clouds.12 mph59%29.86 "HgN/A
12:50 pm61 °FPassing clouds.9 mph55%29.86 "HgN/A
12:20 pm61 °FPassing clouds.7 mph52%29.86 "HgN/A
11:50 am61 °FSunny.12 mph59%29.86 "Hg10 mi
11:20 am61 °FSunny.9 mph55%29.86 "Hg10 mi
10:50 am61 °FSunny.7 mph52%29.86 "Hg10 mi
10:20 am63 °FSunny.No wind45%29.86 "Hg10 mi
9:50 am61 °FSunny.5 mph45%29.86 "Hg10 mi
9:20 am61 °FSunny.1 mph48%29.86 "Hg10 mi
8:50 am57 °FPassing clouds.5 mph55%29.86 "HgN/A
8:20 am55 °FSunny.5 mph55%29.86 "Hg10 mi
7:50 am55 °FPassing clouds.3 mph55%29.86 "HgN/A
7:20 am54 °FSunny.3 mph58%29.86 "Hg10 mi
6:50 am54 °FSunny.2 mph58%29.86 "Hg10 mi
6:20 am52 °FSunny.3 mph58%29.86 "Hg10 mi
5:50 am50 °FSunny.3 mph62%29.86 "Hg10 mi
5:20 am50 °FCool.No wind62%29.86 "HgN/A
4:50 am50 °FCool.3 mph62%29.86 "HgN/A
4:20 am52 °FCool.6 mph58%29.83 "HgN/A
3:50 am50 °FCool.2 mph62%29.83 "HgN/A
3:20 am54 °FCool.9 mph58%29.86 "HgN/A
2:50 am52 °FCool.9 mph62%29.86 "HgN/A
2:20 am52 °FCool.5 mph67%29.86 "HgN/A
1:50 am52 °FCool.2 mph67%29.86 "HgN/A
1:20 am54 °FCool.6 mph63%29.86 "HgN/A
Weather by CustomWeather, © 2020

See weather overview